User: anonymous   Login
Location: Ammerl�gen
(47.2167°N, 9.6000°E)
Time: 14:06:43
(UTC+00:00)
Language:

Cosmos 2221 - Orbit

View from above orbital plane
View from above orbital plane
View from above satellite
View from above satellite

Ground track
Ground track

The orbit data is extracted from the following two-line orbital elements,

1 22236U 92080A   21170.85913762  .00000198  00000-0  18788-4 0  9990
2 22236  82.5079 116.4659 0016536 176.5290 183.6045 14.88062628523902
Epoch (UTC): 19 June 2021 20:37:09
Eccentricity: 0.0016536
inclination: 82.5079°
perigee height: 592 km
apogee height: 615 km
right ascension of ascending node: 116.4659°
argument of perigee: 176.5290°
revolutions per day: 14.88062628
mean anomaly at epoch: 183.6045°
orbit number at epoch: 52390

The dashed part of the orbit path shows where the satellite is in the earth's shadow,  

DLR